Weather History for KIKW - July, 2013

Change the Weather History Date:

Friday, July 19, 2013

  Actual Average (KMBS) Record (KMBS)
Temperature  
Mean Temperature 81 °F 71 °F  
Max Temperature 92 °F 82 °F 95 °F (2013)
Min Temperature 70 °F 60 °F 51 °F (2003)
Degree Days  
Heating Degree Days 0    
Month to date heating degree days  
Since 1 June heating degree days  
Since 1 July heating degree days  
Cooling Degree Days 16    
Month to date cooling degree days  
Year to date cooling degree days  
Since 1 June cooling degree days  
Growing Degree Days 31 (Base 50)    
Moisture  
Dew Point 72 °F    
Average Humidity 67    
Maximum Humidity 93    
Minimum Humidity 48    
Precipitation  
Precipitation 0.10 in 0.08 in 0.40 in (2012)
Month to date precipitation 1.54  
Year to date precipitation 16.17  
Snow  
Snow 0.00 in - - ()
Month to date snowfall  
Since 1 June snowfall  
Since 1 July snowfall  
Snow Depth -    
Sea Level Pressure  
Sea Level Pressure 29.77 in    
Wind  
Wind Speed 10 mph (WSW)    
Max Wind Speed 22 mph    
Max Gust Speed 58 mph    
Visibility 10 miles    
Events Rain    
T = Trace of Precipitation, MM = Missing Value Source: NWS Daily Summary

Daily Weather History Graph

Daily Weather History Graph

Search for Another Location

Airport or City:

Trip Planner

Search our weather history database for the weather conditions in past years. The results will help you decide how hot, cold, wet, or windy it might be!

Date:

Astronomy

Jul. 19, 2013 Rise Set
Actual Time 6:13 AM EDT 9:13 PM EDT
Civil Twilight 5:38 AM EDT 9:47 PM EDT
Nautical Twilight 4:55 AM EDT 10:30 PM EDT
Astronomical Twilight 4:03 AM EDT 11:22 PM EDT
Moon 6:14 PM EDT (7/19) 2:54 AM EDT (7/19)
Length of Visible Light 16h 08m
Length of Day
14h 59m
Waxing Gibbous, 86% of the Moon is Illuminated
Jul 19
Waxing Gibbous
Jul 22
Full
Jul 29
Last Quarter
Aug 6
New
Aug 14
First Quarter

Hourly Weather History & Observations

Time (EDT) Temp. Heat Index Dew Point Humidity Pressure Visibility Wind Dir Wind Speed Gust Speed Precip Events Conditions
12:14 AM 80.8 °F 84.2 °F 70.3 °F 70% 29.91 in 10.0 mi SSW 5.8 mph - N/A   Clear
12:34 AM 81.5 °F 85.5 °F 70.7 °F 70% 29.89 in 10.0 mi SSW 8.1 mph - N/A   Clear
12:53 AM 81.3 °F 85.2 °F 70.9 °F 70% 29.89 in 10.0 mi SSW 8.1 mph - N/A   Clear
1:13 AM 81.5 °F 85.5 °F 71.1 °F 70% 29.89 in 10.0 mi SW 8.1 mph - N/A   Clear
1:34 AM 81.5 °F 85.5 °F 71.1 °F 70% 29.88 in 10.0 mi SW 6.9 mph - N/A   Clear
1:53 AM 81.1 °F 85.2 °F 71.2 °F 72% 29.88 in 10.0 mi SW 9.2 mph - N/A   Clear
2:13 AM 80.6 °F 84.4 °F 71.4 °F 73% 29.87 in 10.0 mi SW 8.1 mph - N/A   Clear
2:33 AM 80.6 °F 84.6 °F 71.8 °F 74% 29.87 in 10.0 mi WSW 9.2 mph - N/A   Clear
2:53 AM 79.7 °F - 71.6 °F 76% 29.86 in 10.0 mi SW 8.1 mph - N/A   Clear
3:14 AM 79.2 °F - 71.6 °F 78% 29.86 in 10.0 mi SW 6.9 mph - N/A   Clear
3:33 AM 78.8 °F - 71.6 °F 78% 29.85 in 10.0 mi SW 8.1 mph - N/A   Clear
3:53 AM 78.8 °F - 71.6 °F 78% 29.84 in 10.0 mi SW 9.2 mph - N/A   Clear
4:14 AM 78.8 °F - 71.8 °F 79% 29.84 in 10.0 mi SW 6.9 mph - N/A   Clear
4:33 AM 78.8 °F - 71.8 °F 79% 29.83 in 10.0 mi SW 5.8 mph - N/A   Clear
4:54 AM 78.1 °F - 71.8 °F 81% 29.82 in 10.0 mi SW 6.9 mph - N/A   Clear
5:14 AM 77.9 °F - 72.0 °F 82% 29.82 in 10.0 mi SW 6.9 mph - N/A   Clear
5:33 AM 78.1 °F - 72.0 °F 81% 29.82 in 10.0 mi SW 8.1 mph - N/A   Clear
5:54 AM 78.1 °F - 72.5 °F 83% 29.81 in 10.0 mi SW 8.1 mph - N/A   Clear
6:13 AM 78.1 °F - 72.5 °F 83% 29.81 in 10.0 mi SW 8.1 mph - N/A   Clear
6:33 AM 78.3 °F - 72.5 °F 82% 29.81 in 10.0 mi SW 9.2 mph - N/A   Clear
6:54 AM 78.8 °F - 72.7 °F 81% 29.81 in 10.0 mi SW 9.2 mph 16.1 mph N/A   Clear
7:13 AM 79.5 °F - 72.9 °F 80% 29.81 in 10.0 mi SW 12.7 mph 18.4 mph N/A   Clear
7:29 AM 80.6 °F 85.4 °F 73.4 °F 79% 29.81 in 10.0 mi SW 10.4 mph - N/A   Clear
7:55 AM 80.6 °F 85.4 °F 73.4 °F 79% 29.81 in 10.0 mi SW 12.7 mph 20.7 mph N/A   Clear
8:13 AM 82.4 °F 88.4 °F 73.6 °F 75% 29.80 in 10.0 mi SW 10.4 mph 19.6 mph N/A   Clear
8:14 AM 82.4 °F 88.4 °F 73.6 °F 75% 29.80 in 10.0 mi SW 11.5 mph 19.6 mph N/A   Clear
8:33 AM 82.9 °F 89.1 °F 73.6 °F 73% 29.80 in 10.0 mi SW 11.5 mph - N/A   Clear
8:54 AM 84.2 °F 90.9 °F 73.4 °F 70% 29.80 in 10.0 mi SW 12.7 mph 17.3 mph N/A   Clear
9:13 AM 85.1 °F 91.8 °F 73.0 °F 67% 29.80 in 10.0 mi SW 15.0 mph 19.6 mph N/A   Clear
9:33 AM 86.0 °F 93.4 °F 73.4 °F 66% 29.80 in 10.0 mi SW 10.4 mph 19.6 mph N/A   Clear
9:53 AM 86.4 °F 93.4 °F 72.7 °F 64% 29.79 in 10.0 mi SW 16.1 mph 23.0 mph N/A   Clear
10:13 AM 87.4 °F 95.3 °F 73.2 °F 63% 29.78 in 10.0 mi SW 15.0 mph 19.6 mph N/A   Clear
10:34 AM 88.5 °F 96.3 °F 73.0 °F 60% 29.77 in 10.0 mi SW 16.1 mph 19.6 mph N/A   Clear
10:53 AM 89.6 °F 97.2 °F 72.3 °F 57% 29.76 in 10.0 mi SW 16.1 mph 21.9 mph N/A   Clear
11:14 AM 90.1 °F 97.3 °F 72.0 °F 55% 29.76 in 10.0 mi SW 17.3 mph 24.2 mph N/A   Clear
11:34 AM 90.5 °F 97.0 °F 71.1 °F 53% 29.76 in 10.0 mi SW 16.1 mph 27.6 mph N/A   Scattered Clouds
11:53 AM 90.9 °F 96.7 °F 70.7 °F 51% 29.75 in 10.0 mi WSW 17.3 mph 24.2 mph N/A   Scattered Clouds
12:14 PM 91.4 °F 96.8 °F 70.0 °F 49% 29.74 in 10.0 mi WSW 16.1 mph 31.1 mph N/A   Clear
12:34 PM 91.6 °F 96.7 °F 69.4 °F 48% 29.74 in 10.0 mi SW 21.9 mph 33.4 mph N/A   Clear
12:53 PM 92.5 °F 98.4 °F 70.0 °F 48% 29.74 in 10.0 mi WSW 15.0 mph 31.1 mph N/A   Scattered Clouds
1:14 PM 92.1 °F 98.3 °F 70.2 °F 49% 29.73 in 10.0 mi West 13.8 mph 31.1 mph N/A   Clear
1:34 PM 92.5 °F 98.4 °F 70.0 °F 48% 29.72 in 10.0 mi WSW 17.3 mph 29.9 mph N/A   Clear
1:53 PM 91.4 °F 97.3 °F 70.3 °F 50% 29.72 in 10.0 mi SW 19.6 mph 27.6 mph N/A   Scattered Clouds
2:14 PM 84.4 °F 88.5 °F 69.8 °F 61% 29.74 in 3.0 mi WSW 17.3 mph 57.5 mph 0.08 in Rain Heavy Rain
2:33 PM 77.0 °F - 71.2 °F 82% 29.73 in 10.0 mi West 8.1 mph - 0.08 in Rain Light Rain
2:54 PM 82.4 °F 87.4 °F 72.3 °F 71% 29.72 in 10.0 mi WSW 9.2 mph - 0.08 in   Clear
3:14 PM 86.2 °F 94.6 °F 74.5 °F 68% 29.71 in 10.0 mi West 10.4 mph - N/A   Clear
3:33 PM 88.9 °F 98.6 °F 74.7 °F 63% 29.71 in 10.0 mi WSW 15.0 mph 20.7 mph N/A   Scattered Clouds
3:54 PM 90.7 °F 98.5 °F 72.3 °F 55% 29.71 in 10.0 mi WSW 16.1 mph 26.5 mph N/A   Clear
4:14 PM 91.2 °F 98.5 °F 71.8 °F 53% 29.71 in 10.0 mi WSW 16.1 mph 31.1 mph N/A   Clear
4:33 PM 91.4 °F 98.9 °F 72.3 °F 53% 29.71 in 10.0 mi WSW 17.3 mph 26.5 mph N/A   Clear
4:54 PM 91.4 °F 98.9 °F 72.1 °F 53% 29.70 in 10.0 mi West 18.4 mph 27.6 mph N/A   Clear
5:14 PM 91.9 °F 100.1 °F 72.3 °F 53% 29.70 in 10.0 mi WSW 12.7 mph 16.1 mph N/A   Clear
5:33 PM 91.4 °F 97.8 °F 70.9 °F 51% 29.69 in 10.0 mi WSW 18.4 mph 26.5 mph N/A   Clear
5:54 PM 91.4 °F 97.8 °F 71.1 °F 51% 29.68 in 10.0 mi WSW 21.9 mph 32.2 mph N/A   Scattered Clouds
6:14 PM 90.7 °F 97.4 °F 71.4 °F 53% 29.68 in 10.0 mi West 13.8 mph 21.9 mph N/A   Scattered Clouds
6:33 PM 89.6 °F 96.2 °F 71.4 °F 55% 29.68 in 10.0 mi West 11.5 mph 17.3 mph N/A   Scattered Clouds
6:54 PM 90.1 °F 97.3 °F 72.0 °F 55% 29.67 in 10.0 mi West 10.4 mph - N/A   Mostly Cloudy
7:14 PM 89.6 °F 96.2 °F 71.2 °F 55% 29.67 in 10.0 mi WSW 10.4 mph 16.1 mph N/A   Scattered Clouds
7:33 PM 90.0 °F 95.9 °F 70.9 °F 53% 29.67 in 10.0 mi WSW 12.7 mph 20.7 mph N/A   Scattered Clouds
7:54 PM 89.4 °F 96.3 °F 71.6 °F 56% 29.68 in 10.0 mi WSW 10.4 mph 20.7 mph N/A   Clear
8:14 PM 88.2 °F 93.7 °F 70.9 °F 56% 29.69 in 10.0 mi WSW 11.5 mph 16.1 mph N/A   Clear
8:33 PM 87.1 °F 92.8 °F 71.1 °F 59% 29.68 in 10.0 mi North - - N/A   Clear
8:54 PM 86.0 °F 91.1 °F 70.9 °F 60% 29.69 in 10.0 mi West 5.8 mph - N/A   Clear
9:14 PM 84.2 °F 89.6 °F 71.6 °F 66% 29.69 in 10.0 mi WSW 3.5 mph - N/A   Clear
9:34 PM 83.1 °F 88.1 °F 71.6 °F 68% 29.68 in 10.0 mi WSW 3.5 mph - N/A   Clear
9:54 PM 82.4 °F 87.2 °F 71.6 °F 70% 29.69 in 10.0 mi WSW 4.6 mph - N/A   Clear
10:14 PM 82.4 °F 87.0 °F 71.4 °F 69% 29.71 in 10.0 mi WNW 11.5 mph - N/A   Scattered Clouds
10:34 PM 74.8 °F - 68.4 °F 80% 29.71 in 10.0 mi NW 10.4 mph 21.9 mph 0.02 in Rain Light Rain
10:54 PM 72.0 °F - 68.0 °F 87% 29.72 in 10.0 mi WNW 5.8 mph - 0.02 in   Scattered Clouds
11:14 PM 71.1 °F - 67.6 °F 89% 29.73 in 10.0 mi Calm Calm - N/A   Clear
11:34 PM 70.2 °F - 68.2 °F 93% 29.73 in 10.0 mi NW 3.5 mph - N/A   Scattered Clouds
11:54 PM 70.5 °F - 68.4 °F 93% 29.74 in 10.0 mi NNW 5.8 mph - N/A   Mostly Cloudy